Theta_e
316 317 317 317 317 317 317 316 316 315 315 315 315 316 316 318 320 325 332 331 338 338 336 344 344 342 347 345 346 346 345 348 347 349 352 350 351 349 348 349 349 349 349 350 349
315 316 317 317 318 318 318 317 316 316 315 315 315 316 316 318 320 329 329 332 337 338 338 341 339 341 344 342 343 342 346 349 347 349 350 349 349 349 349 349 350 348 349 350 349
315 315 316 316 317 318 318 318 317 316 316 315 315 316 317 318 326 332 330 333 336 338 339 336 336 342 342 343 343 342 346 348 349 349 349 348 348 349 348 350 349 349 350 349 349
317 316 316 316 316 317 318 318 318 317 316 316 316 316 317 318 335 330 330 331 334 336 336 335 340 343 343 343 343 344 346 347 349 349 348 349 345 345 347 347 349 349 349 349 349
319 318 317 316 316 316 318 318 318 318 317 316 316 316 317 327 328 327 327 330 332 336 336 337 341 342 343 342 343 343 348 347 349 348 348 346 345 346 347 348 349 348 348 349 348
320 319 318 317 316 316 317 318 318 318 318 316 316 316 323 325 321 327 327 331 333 333 336 338 341 341 341 342 344 344 347 348 349 349 348 348 348 346 347 348 349 349 350 349 349
320 320 320 318 317 316 316 318 319 318 318 316 316 316 322 323 320 326 327 329 335 335 337 338 340 341 340 341 342 344 347 348 349 350 350 351 349 349 347 348 349 350 350 350 350
321 320 320 319 318 316 316 318 319 318 318 316 316 316 324 320 320 322 327 328 329 333 336 338 339 340 340 340 341 344 344 349 347 350 351 349 356 349 348 348 349 350 350 349 349
322 321 321 320 319 316 316 319 319 318 318 317 321 323 325 320 319 322 326 330 331 332 334 336 337 340 340 341 343 342 349 344 346 348 350 351 355 350 348 348 348 348 349 349 350
322 322 322 321 319 316 316 319 319 318 318 319 320 323 322 322 322 322 325 328 331 332 334 336 338 342 341 342 344 348 343 342 342 343 347 351 353 353 349 348 348 347 347 348 349
322 322 322 321 319 316 319 324 325 327 325 325 326 323 321 322 322 322 324 328 330 333 338 338 341 342 342 341 342 343 342 342 341 340 342 345 347 353 351 350 349 347 347 348 348
321 322 321 321 320 317 322 325 322 321 324 324 323 323 323 322 324 323 324 329 331 335 338 340 340 340 340 342 341 341 342 342 341 340 342 343 345 346 353 351 350 349 347 347 348
321 321 322 321 318 321 323 322 321 322 325 326 324 323 323 322 323 324 323 328 332 335 337 339 340 338 341 341 340 341 342 342 341 340 341 345 347 342 346 351 350 350 349 346 348
320 321 321 321 324 322 325 322 322 322 328 327 323 322 322 322 323 324 324 326 330 332 335 337 337 339 339 340 340 341 340 340 340 341 344 344 346 348 348 354 353 351 350 349 347
317 319 320 321 321 324 324 322 322 323 329 325 325 323 323 323 324 324 324 325 328 329 331 333 336 337 340 339 339 341 340 340 339 341 341 342 344 347 346 353 354 352 351 350 349
311 317 319 322 322 323 321 322 323 325 326 326 325 324 325 323 324 325 324 324 326 329 330 331 332 335 338 337 338 339 339 339 339 340 342 343 345 346 347 349 350 352 351 350 350
310 313 317 318 325 322 321 323 327 327 325 326 326 326 326 325 325 325 325 325 326 327 329 329 330 333 334 335 336 338 338 340 340 340 343 343 345 343 345 347 347 348 351 351 350
315 314 315 318 321 321 322 327 328 326 325 327 326 326 326 327 325 325 325 325 327 328 329 329 329 331 332 333 335 337 336 337 341 340 349 346 348 344 345 349 348 348 351 351 351
317 321 321 323 321 321 324 327 327 326 325 326 326 326 327 326 325 325 326 326 327 328 328 329 329 331 331 332 332 333 334 333 333 336 341 346 342 343 348 351 351 350 349 351 352
317 322 325 323 322 322 325 325 327 325 323 324 326 328 329 326 324 326 326 327 327 328 328 329 329 331 331 331 331 331 333 333 333 337 341 344 340 343 345 351 353 352 351 353 354
321 325 324 323 322 324 326 325 325 324 322 324 325 327 328 328 327 326 326 327 328 328 328 328 329 330 331 330 330 331 331 332 334 335 337 339 343 345 345 349 353 353 353 354 355
323 328 323 323 325 327 328 326 322 324 323 323 324 326 327 327 328 328 326 327 325 327 326 328 328 329 331 331 331 331 331 331 332 335 339 341 345 341 341 346 351 352 354 355 354
325 327 323 324 330 329 327 326 324 324 324 326 325 325 326 327 330 330 329 329 327 326 326 327 327 327 329 330 330 330 332 331 331 334 336 339 341 345 344 348 351 354 354 354 353
325 332 326 325 326 327 326 326 325 322 324 327 327 326 326 328 329 332 330 330 326 327 323 326 327 327 328 330 330 330 330 331 332 334 336 336 343 349 343 349 354 354 355 354 353
326 329 328 330 328 328 327 327 327 327 328 327 328 327 327 327 328 331 331 331 329 326 326 325 326 327 328 328 330 330 330 330 330 331 332 333 334 336 344 349 353 354 356 355 353
323 324 325 328 329 329 325 328 329 328 329 331 329 330 326 327 332 335 332 332 333 332 329 327 327 328 327 328 328 328 329 330 329 330 331 332 334 336 344 349 352 354 355 353 353
313 318 321 326 329 330 331 331 328 329 330 329 332 331 331 331 332 334 335 335 336 335 335 332 329 328 328 329 328 328 328 329 329 331 331 333 333 336 338 351 353 355 355 353 353
Wind_Speed
12 11 11 11 12 12 12 11 11 11 10 9 7 6 6 6 5 3 4 7 3 2 4 3 4 2 3 2 4 7 13 13 15 15 12 5 13 10 13 12 8 2 19 23 23
12 13 12 12 12 11 12 12 11 11 10 9 7 6 5 6 5 9 11 8 4 3 3 5 9 4 11 4 4 9 11 15 17 15 11 9 15 10 9 9 9 14 22 23 22
12 12 13 12 12 12 12 12 12 11 11 9 7 6 4 3 5 8 11 8 5 4 4 9 10 10 5 5 8 16 11 14 14 15 12 10 10 7 9 10 12 17 24 24 21
12 12 13 13 13 13 13 12 12 11 11 10 7 5 4 4 7 6 10 9 6 6 9 10 13 12 1 12 1 15 9 12 10 8 11 10 11 12 12 8 12 17 22 22 20
12 13 13 13 13 13 13 13 12 11 11 10 7 5 2 7 6 5 9 10 8 7 10 11 14 8 3 8 6 13 7 9 7 9 10 11 14 12 12 10 14 19 20 18 16
13 13 13 13 13 14 14 13 12 11 10 9 7 4 3 15 2 6 5 9 8 10 10 10 8 9 4 4 8 8 3 8 8 6 7 10 10 9 11 14 18 20 18 16 14
14 14 14 14 14 13 14 13 12 11 10 8 7 4 8 4 6 7 6 7 10 11 12 8 6 13 2 9 1 8 11 9 6 5 2 5 11 12 15 16 18 17 15 15 14
15 15 15 15 14 13 13 12 12 11 10 7 5 4 8 10 9 11 9 10 11 11 11 6 8 12 11 1 8 13 10 8 10 5 3 9 10 13 16 16 17 17 15 15 14
15 15 15 14 14 13 11 11 11 11 9 6 4 3 10 7 10 12 11 12 13 12 11 9 10 17 7 14 16 11 9 8 11 7 2 6 10 15 17 17 17 17 17 16 15
15 15 15 14 13 13 10 9 10 10 8 6 7 7 10 12 11 9 12 12 14 15 14 14 17 15 13 14 2 21 5 10 1 9 7 9 5 15 19 17 17 17 17 16 15
16 15 14 14 12 11 7 7 6 3 10 14 1 7 2 6 9 11 15 14 15 17 17 21 16 16 20 14 10 6 8 2 5 3 8 7 8 18 19 19 18 19 20 18 17
15 14 13 13 11 7 7 6 4 5 11 14 17 16 10 6 8 14 17 18 20 20 22 20 19 19 16 4 6 11 8 10 4 4 7 9 7 11 20 21 20 18 19 19 18
15 14 12 11 7 7 2 1 5 8 8 9 14 15 14 14 14 19 22 26 18 22 23 23 17 19 16 8 12 12 13 4 6 10 18 12 7 11 13 20 20 19 17 19 19
15 13 11 6 3 6 1 4 8 5 6 14 12 9 12 12 14 16 23 26 18 21 24 23 21 18 19 15 15 17 11 3 11 14 4 22 4 10 13 17 17 20 20 20 19
14 12 9 7 4 3 4 6 7 4 6 10 12 8 9 16 7 23 18 26 21 19 18 24 20 22 17 17 18 16 3 8 12 14 18 14 7 11 13 18 17 16 21 20 21
13 12 7 5 6 7 7 8 5 7 6 8 8 11 13 19 12 17 19 22 21 20 18 19 18 22 17 19 18 14 15 9 14 15 14 7 8 14 7 6 11 18 19 20 23
12 11 8 6 2 5 7 5 7 10 5 8 8 9 16 13 19 14 19 21 18 19 20 19 19 13 17 20 22 21 15 12 14 14 4 12 15 10 12 9 6 5 17 21 22
12 10 8 8 6 6 4 8 9 1 1 3 3 6 12 12 18 17 20 20 24 22 16 18 18 19 18 20 17 18 18 14 18 17 7 11 10 5 12 13 10 8 12 18 20
8 4 3 4 6 6 10 10 11 10 5 5 8 11 12 8 7 17 21 21 23 25 21 18 20 18 19 17 21 20 17 21 25 26 8 13 10 26 15 14 9 13 13 17 19
5 3 4 5 5 7 9 15 11 3 7 9 14 3 10 16 13 16 17 18 22 24 20 21 13 17 17 15 18 20 15 12 14 22 18 20 7 2 14 15 12 13 17 18 20
2 6 1 3 6 11 9 14 10 7 5 8 5 5 11 2 10 15 17 8 14 13 17 21 12 17 15 17 20 16 18 15 20 15 16 13 6 10 16 13 15 15 19 21 21
3 3 1 6 10 13 11 14 4 9 7 10 5 11 10 4 11 13 12 11 18 19 18 19 13 14 16 16 18 24 21 22 15 17 14 14 2 18 23 21 17 21 21 21 21
8 3 2 6 6 8 10 8 8 12 9 6 8 8 3 9 6 13 7 4 2 12 13 16 13 15 18 18 20 12 19 21 23 18 17 14 5 8 7 13 17 22 23 22 22
7 4 6 9 12 10 9 8 12 11 14 8 10 12 10 12 11 8 7 6 6 15 10 11 17 15 16 18 15 20 21 17 18 15 15 16 11 15 10 15 16 20 23 23 23
3 5 5 2 7 7 6 9 7 7 11 8 10 14 15 13 14 12 13 6 11 6 9 16 17 17 18 20 14 20 20 22 24 22 20 17 16 12 16 17 21 24 24 25 25
8 7 11 13 8 7 5 10 10 8 4 12 11 13 10 11 16 11 7 5 7 10 13 16 16 14 20 14 19 13 17 18 23 23 21 21 20 17 16 19 21 26 27 27 26
9 6 8 8 11 7 3 9 8 9 8 13 11 6 5 12 13 18 15 18 16 8 9 12 13 15 15 17 17 21 22 19 20 21 17 19 19 13 10 17 22 26 26 28 28
Wind_Direction
15 14 13 9 5 6 2 0 358 353 348 339 326 316 296 278 259 232 242 218 247 284 323 323 277 314 251 238 265 264 63 54 55 67 96 132 92 74 105 127 108 74 136 144 148
10 7 4 1 357 356 356 354 353 349 345 342 329 320 304 279 242 237 233 215 221 275 281 285 343 295 224 121 328 99 65 55 46 65 82 69 85 124 132 124 128 102 121 144 150
5 1 358 355 350 347 346 344 347 345 341 342 333 322 304 271 258 202 214 204 213 244 268 293 301 267 167 250 46 50 74 79 60 54 76 97 109 169 160 143 148 138 145 153 156
359 356 352 348 344 340 336 334 337 341 336 339 336 320 294 212 220 187 195 194 203 226 259 291 271 255 241 112 287 92 52 76 77 76 76 86 80 62 41 57 135 147 154 158 161
353 350 345 342 339 334 330 327 328 332 331 333 338 322 246 239 244 197 193 188 195 211 246 270 291 290 89 95 154 102 94 96 99 85 88 89 82 91 92 105 130 144 155 161 169
345 344 341 336 332 329 325 323 322 321 324 326 333 319 281 249 171 179 177 178 196 208 246 257 331 328 328 41 47 100 89 118 131 113 109 124 133 118 116 128 136 151 160 167 171
337 338 337 334 329 325 320 319 317 311 316 319 323 315 260 255 200 207 209 192 208 207 247 250 289 283 277 147 56 170 157 156 138 152 164 175 138 113 141 145 150 161 169 171 179
334 334 334 332 329 323 315 314 310 305 307 309 315 304 259 232 226 223 212 219 213 215 232 269 266 282 270 260 186 218 259 160 117 147 200 256 114 139 157 159 163 169 173 178 185
332 333 332 330 327 321 311 309 306 300 297 297 335 261 249 248 209 207 211 214 212 215 224 244 255 257 198 230 205 219 192 90 146 156 173 267 135 162 174 173 170 174 174 182 186
328 331 333 329 327 323 314 311 302 291 280 274 239 251 236 217 190 213 210 208 212 211 218 229 234 243 233 239 256 299 115 125 24 124 195 193 225 167 188 188 182 179 172 179 182
326 330 334 330 329 330 335 325 283 218 227 249 355 262 183 208 235 224 208 208 217 217 217 213 232 236 242 228 4 309 335 50 97 114 276 236 234 162 190 200 193 188 176 179 183
321 326 331 330 329 347 18 342 32 335 297 256 243 244 243 236 227 207 193 205 209 217 219 232 226 243 249 81 251 254 247 239 214 209 263 264 8 190 177 205 201 196 183 182 184
318 323 330 333 338 8 347 29 338 328 261 225 220 228 221 215 228 200 196 206 212 220 218 230 211 235 259 195 243 245 252 297 322 299 257 316 79 267 276 195 205 202 198 188 186
314 320 328 341 17 331 263 321 335 311 269 166 197 206 198 211 231 224 204 209 231 226 226 234 238 237 213 234 234 257 232 204 267 281 265 214 246 165 263 200 201 198 194 196 191
314 314 323 320 285 312 283 318 321 294 261 149 129 143 179 201 125 196 206 215 225 219 237 234 227 240 236 230 237 254 147 288 287 285 281 295 319 181 195 182 187 203 203 198 184
316 307 307 315 283 264 298 301 296 231 248 142 146 191 190 212 220 172 197 220 227 239 234 250 232 237 222 239 242 251 259 263 259 261 265 58 292 138 134 141 156 182 205 199 179
315 297 281 247 149 281 298 266 227 244 94 163 191 189 212 181 215 181 197 200 212 218 219 219 238 236 246 234 240 236 235 244 240 237 225 356 315 120 142 114 131 186 180 191 184
316 295 273 248 247 261 265 237 248 198 201 66 260 235 235 215 212 196 202 208 217 213 220 217 217 211 214 237 235 213 237 243 251 255 50 44 263 118 106 109 128 148 168 180 179
328 323 267 268 228 209 233 227 229 274 20 276 265 239 201 220 249 196 215 214 213 227 228 227 226 200 211 217 236 235 218 244 258 268 213 172 200 274 140 126 138 149 159 163 169
337 230 193 254 213 195 235 252 291 341 313 257 270 237 231 190 203 208 205 221 223 213 238 256 271 203 190 229 229 248 260 229 247 262 272 263 215 304 175 139 147 147 151 153 161
50 232 201 194 172 218 235 237 243 183 259 284 278 277 279 304 218 217 234 216 229 192 228 246 238 242 185 205 229 218 239 250 269 234 260 264 216 97 56 282 159 154 154 158 160
284 241 136 156 215 225 242 245 25 278 199 263 275 285 288 326 265 263 230 216 195 228 211 233 248 226 206 231 218 249 219 234 244 251 259 284 178 215 186 208 156 149 153 156 159
301 23 216 187 244 225 239 288 269 263 234 244 244 242 276 270 271 269 235 92 136 251 241 218 232 252 236 205 222 230 254 220 242 249 253 255 261 112 107 126 152 145 153 157 157
294 210 147 216 277 285 299 254 235 209 277 286 275 272 255 254 236 277 242 200 234 234 325 286 243 230 245 227 213 208 235 253 263 258 242 247 196 161 171 152 154 154 155 161 161
312 31 350 203 220 264 302 297 264 242 201 252 250 245 253 244 247 210 245 244 196 194 241 237 250 246 256 268 254 241 214 227 243 250 259 263 256 248 187 176 169 161 161 165 162
342 342 339 282 273 261 216 262 255 275 260 271 220 284 222 259 275 325 267 244 226 179 214 221 246 249 249 251 254 250 253 244 223 241 249 263 272 282 98 128 166 168 167 173 168
354 324 296 293 271 248 358 308 262 297 292 281 309 312 271 266 316 313 314 304 305 290 279 224 227 247 244 245 244 243 239 239 250 246 230 245 250 264 239 159 177 171 172 175 168